Regional Weather Roundup
Issued by NWS Green Bay, WI

Home | Current Version | Previous Version | Graphics & Text | Print | Product List | Glossary Off
Versions: 1 2 3 4 5 6 7 8 9 10 11 12 13 14 15 16 17 18 19 20 21 22 23 24 25 26 27 28 29 30 31 32 33 34 35 36 37 38 39 40 41 42 43 44 45 46 47 48 49 50

000
ASUS43 KGRB 061400
RWRGRB

NORTH-CENTRAL AND NORTHEAST WISCONSIN REGIONAL WEATHER ROUNDUP
NATIONAL WEATHER SERVICE GREEN BAY WI
900 AM CDT FRI MAY 06 2016

WIZ005-009-010>012-018-019-061500-
NORTH CENTRAL WISCONSIN

CITY           SKY/WX    TMP DP  RH WIND       PRES   REMARKS
IRONWOOD         N/A     73  43  33 W12       29.78S
MANITOWISH WTR NOT AVBL
ARBOR VITAE    NOT AVBL
EAGLE RIVER    NOT AVBL
LAND O LAKES   NOT AVBL
RHINELANDER    SUNNY     68  42  38 W13G21    29.86
PHILLIPS       NOT AVBL
ANTIGO         NOT AVBL
TOMAHAWK       NOT AVBL
MERRILL        NOT AVBL
$$

WIZ013-073-061500-
NORTHEAST WISCONSIN

CITY           SKY/WX    TMP DP  RH WIND       PRES   REMARKS
IRON MOUNTAIN  SUNNY     64  42  44 SE5       29.82
MARINETTE      SUNNY     64  43  45 SE9       29.86F
$$

WIZ017-030-035>037-045-061500-
CENTRAL WISCONSIN

CITY           SKY/WX    TMP DP  RH WIND       PRES   REMARKS
MEDFORD        NOT AVBL
WAUSAU         SUNNY     62  43  49 SW6       29.86
MOSINEE        MOSUNNY   61  45  55 SW8       29.89S
MARSHFIELD     SUNNY     63  42  46 W10       29.88
WISC RAPIDS    MOSUNNY   62  40  44 SW10      29.91
STEVENS POINT  NOT AVBL
WAUPACA        NOT AVBL
SHAWANO        NOT AVBL
CLINTONVILLE   NOT AVBL
WAUTOMA        CLOUDY    60  42  51 SW8       29.92S
$$

WIZ038-039-048-051-061500-
FOX VALLEY

CITY           SKY/WX    TMP DP  RH WIND       PRES   REMARKS
NWS GREEN BAY  SUNNY     62  44  51 SW9       29.89
APPLETON       PTSUNNY   61  39  44 SW8       29.89F
OSHKOSH        SUNNY     62  41  46 SW10      29.90F
FOND DU LAC    MOSUNNY   62  41  46 SW14      29.92S
$$

WIZ022-050-052-061500-
EAST CENTRAL WISCONSIN

CITY           SKY/WX    TMP DP  RH WIND       PRES   REMARKS
EPHRAIM        NOT AVBL
STURGEON BAY   SUNNY     63  45  51 SW10      29.91S
MANITOWOC      NOT AVBL
SHEBOYGAN      SUNNY     66  42  41 SW12      29.92F
$$

LMZ563-521-522-541>543-061500-
LAKESHORE

STATION/POSITION TIME  TEMP    WIND        PRES    VSBY  WAVE
                       AIR SEA DIR/SP/G                  HT/PER
                 (UTC) (F)     (DEG/KT/KT) (MB)    (MI)  (FT/S)
SHEBOYGAN LKSHOR 1300   55     210/  5/  6 1013.9S
KEWAUNEE LKSHORE 1300   47     170/  7/  7 1011.9F
ALGOMA MARINA    1316          210/  8/  9   N/A
NORTHPORT PIER   1300   48     160/  4/  8 1011.9F
N MID LAKE BUOY  1250   42 39  190/ 14/ 16 1012.2F         1/ 3
CHAMBERS ISLAND  1300   57     180/  9/ 14 1011.9S
MENOMINEE LKSHOR 1300   57     190/  9/ 12 1010.5F
$$




USA.gov is the U.S. government's official web portal to all federal, state and local government web resources and services.